Location: Bartshausen
(51.8454°N, 9.8167°E)
Time: 01:17:28
(UTC+00:00)

Timation 2 Rocket - Pass Details

Date: 08 November 2025
Orbit: 904 x 1074 km, 70.0° (Epoch: 13 December)

Event Time Altitude Azimuth Distance (km) Brightness Sun altitude
Exits shadow 04:14:49 20° 321° (NW) 2,234 5.5 -20.6°
Maximum altitude 04:19:39 65° 244° (WSW) 1,112 4.0 -19.9°
Drops below altitude 10° 04:25:59 10° 164° (SSE) 2,739 6.6 -18.9°
Sets 04:28:30 0° 162° (SSE) 3,658 7.3 -18.5°
